Location: Gaast
(52.9002°N, 5.8891°E)
Time: 02:10:36
(UTC+00:00)

CZ-2D R/B - Pass Details

Date: 18 November 2025
Orbit: 525 x 597 km, 98.0° (Epoch: 13 December)

Event Time Altitude Azimuth Distance (km) Brightness Sun altitude
Rises 17:45:44 0° 167° (SSE) 2,797 6.9 -18.9°
Reaches altitude 10° 17:47:52 10° 169° (S) 1,911 6.0 -19.3°
Maximum altitude 17:52:01 77° 256° (WSW) 617 3.6 -19.9°
Drops below altitude 10° 17:56:16 10° 343° (NNW) 1,951 6.2 -20.5°
Sets 17:58:28 0° 345° (NNW) 2,861 7.1 -20.8°
